Flag for Germany Weather past 2 weeks in Langenfeld (Rheinland), North Rhine-Westphalia, Germany

Now
68 °F

Sunny.


Feels Like: 68 °F
Forecast: 56 / 72 °F
Wind: 6 mph from Southeast

Location: Duesseldorf

Current Time: Aug 27, 2014 at 7:50:29 PM

Latest Report: Aug 27, 2014 at 7:20 PM


Visibility: 10 mi

Pressure: 30.01 "Hg

Humidity: 43%

Dew point: 45 °F

Location of Langenfeld (Rheinland)Location

Historic Weather in Langenfeld (Rheinland) — Graph

°F

Langenfeld (Rheinland) temperature yesterday

Maximum temperature yesterday: 59 °F (at 11:20 AM)
Minimum temperature yesterday: 55 °F (at 5:20 AM)
Average temperature yesterday: 57 °F

Past Weeks' High & Low Weather Summary

 TemperatureHumidityPressure
High70 °F (Aug 13, 6:20 PM)100% (Aug 26, 8:20 AM)30.09 "Hg (Aug 26, 8:20 AM)
Low46 °F (Aug 20, 2:50 AM)40% (Aug 27, 4:20 PM)29.62 "Hg (Aug 26, 4:50 AM)
Average58 °F77%29.89 "Hg
* Reported Aug 12 6:20 PM — Aug 27 6:20 PM, Langenfeld (Rheinland), Weather by CustomWeather, © 2014

Note: Actual official high and low records may vary slightly from our data, if they occured in-between our weather recording intervals... More about our weather records

Advertising

Langenfeld (Rheinland) weather history for previous 24 hours

 ConditionsComfort  
Time TempWeatherWind HumidityBarometerVisibility
6:20 PM
Aug 27
70 °FSunny.5 mph40%30.01 "Hg10 mi
5:50 PM70 °FSunny.8 mph40%30.01 "Hg10 mi
4:50 PM70 °FSunny.5 mph43%30.01 "Hg10 mi
4:20 PM70 °FSunny.5 mph40%30.01 "Hg10 mi
3:50 PM70 °FSunny.2 mph46%30.01 "Hg10 mi
3:20 PM70 °FSunny.3 mph46%30.01 "Hg10 mi
2:50 PM68 °FSunny.2 mph53%30.01 "Hg10 mi
2:20 PM68 °FSunny.5 mph46%30.01 "Hg10 mi
1:50 PM68 °FPassing clouds.6 mph46%30.01 "HgN/A
1:20 PM68 °FPassing clouds.6 mph49%30.04 "HgN/A
12:50 PM66 °FPassing clouds.8 mph52%30.01 "HgN/A
12:20 PM66 °FPassing clouds.6 mph46%30.01 "HgN/A
11:50 AM66 °FPassing clouds.7 mph49%30.04 "HgN/A
11:20 AM64 °FPassing clouds.8 mph56%30.01 "HgN/A
10:50 AM64 °FPassing clouds.5 mph64%30.01 "HgN/A
10:20 AM63 °FSunny.6 mph77%30.01 "Hg10 mi
9:50 AM61 °FSunny.6 mph83%30.01 "Hg10 mi
9:20 AM57 °FSunny.2 mph94%29.98 "Hg10 mi
8:50 AM55 °FClear.2 mph94%29.98 "Hg4 mi
8:20 AM52 °FFog.2 mph100%29.98 "Hg2 mi
7:50 AM50 °FFog.3 mph100%29.95 "Hg2 mi
7:20 AM50 °FSleet. Overcast.3 mph94%29.95 "Hg2 mi
6:50 AM50 °FSleet. Overcast.5 mph94%29.95 "Hg2 mi
6:20 AM50 °FFog.6 mph94%29.92 "Hg3 mi
5:50 AM52 °FPassing clouds.6 mph94%29.92 "Hg4 mi
5:20 AM52 °FFog.7 mph94%29.92 "Hg4 mi
4:50 AM52 °FFog.6 mph94%29.89 "Hg4 mi
4:20 AM52 °FFog.6 mph94%29.89 "Hg4 mi
3:50 AM52 °FFog.6 mph94%29.89 "Hg4 mi
3:20 AM54 °FClear.5 mph94%29.86 "Hg4 mi
2:20 AM54 °FSleet. Overcast.7 mph94%29.86 "HgN/A
1:50 AM55 °FSleet. Overcast.6 mph94%29.86 "HgN/A
1:20 AM55 °FFog.5 mph94%29.83 "HgN/A
12:50 AM55 °FClear.3 mph100%29.83 "Hg10 mi
12:20 AM57 °FClear.3 mph94%29.83 "Hg10 mi
11:20 PM
Aug 26
57 °FPassing clouds.6 mph94%29.80 "HgN/A
10:50 PM57 °FPassing clouds.6 mph94%29.80 "HgN/A
10:20 PM57 °FPassing clouds.6 mph94%29.80 "HgN/A
9:50 PM57 °FPassing clouds.7 mph94%29.77 "HgN/A
9:20 PM57 °FLight rain. Partly sunny.9 mph88%29.77 "HgN/A
8:50 PM57 °FRain. Broken clouds.9 mph94%29.74 "HgN/A
8:20 PM57 °FRain. Mostly cloudy.10 mph94%29.74 "HgN/A
7:50 PM57 °FLight rain. Broken clouds.10 mph94%29.74 "HgN/A
7:20 PM57 °FLight rain. Partly sunny.9 mph94%29.74 "HgN/A
Weather by CustomWeather, © 2014

See weather overviewHow to use our weather pages